This is the latest recevied weather packets stored in our database for station/object K9APR. If no packets are shown the sender has not sent any weather packets the latest 10 day(s).
| Time | Temp. | Humidity | Pressure | Rain* | Wind** | Luminosity | Snow |
|---|---|---|---|---|---|---|---|
| 1778095582 | 12.78° C | 63% | 1014.3 hPa | 0 mm | - | - | - |
| 1778095043 | 12.22° C | 63% | 1014.3 hPa | 0 mm | - | - | - |
| 1778094503 | 12.22° C | 62% | 1014.4 hPa | 0 mm | - | - | - |
| 1778093963 | 12.22° C | 62% | 1014.5 hPa | 0 mm | - | - | - |
| 1778092883 | 12.78° C | 62% | 1014.5 hPa | 0 mm | - | - | - |
| 1778092344 | 12.22° C | 63% | 1014.6 hPa | 0 mm | - | - | - |
| 1778091804 | 12.22° C | 64% | 1014.6 hPa | 0 mm | - | - | - |
| 1778091262 | 12.22° C | 60% | 1014.6 hPa | 0 mm | - | - | - |
| 1778090725 | 12.22° C | 61% | 1014.5 hPa | 0 mm | - | - | - |
| 1778090183 | 12.22° C | 61% | 1014.3 hPa | 0 mm | - | - | - |
| 1778089643 | 12.22° C | 63% | 1014.3 hPa | 0 mm | - | - | - |
| 1778089102 | 12.22° C | 64% | 1014.6 hPa | 0 mm | - | - | - |
| 1778088615 | 12.22° C | 65% | 1014.7 hPa | 0 mm | - | - | - |
| 1778088563 | 12.22° C | 65% | 1014.7 hPa | 0 mm | - | - | - |
| 1778088023 | 12.22° C | 61% | 1014.8 hPa | 0 mm | - | - | - |
| 1778087484 | 12.22° C | 62% | 1014.8 hPa | 0 mm | - | - | - |
| 1778086942 | 12.22° C | 62% | 1014.7 hPa | 0 mm | - | - | - |
| 1778086402 | 12.22° C | 64% | 1014.4 hPa | 0 mm | - | - | - |
| 1778085863 | 12.78° C | 62% | 1014.3 hPa | 0 mm | - | - | - |
| 1778085323 | 12.22° C | 66% | 1014.4 hPa | 0 mm | - | - | - |
| 1778084781 | 12.22° C | 63% | 1014.5 hPa | 0 mm | - | - | - |
| 1778084243 | 11.67° C | 63% | 1014.5 hPa | 0 mm | - | - | - |
| 1778083736 | 12.22° C | 63% | 1014.4 hPa | 0 mm | - | - | - |
| 1778083703 | 12.22° C | 63% | 1014.4 hPa | 0 mm | - | - | - |
| 1778083162 | 12.22° C | 66% | 1014.5 hPa | 0 mm | - | - | - |
* Rain latest hour (hover to see other rain measurements)
** Current wind speed in m/s (hover to see current wind gust speed)